Location: Unspecified
(0.0000°N, 0.0000°E)
Time: 07:09:09
(UTC+00:00)

deb Ariane - Visible Passes

Search period start: 04 April 2026 00:00
Search period end: 14 April 2026 00:00
Orbit: 544 x 36024 km, 6.5° (Epoch: 29 March)

Date Brightness Start Highest point End Pass type
(mag) Time Alt. Az. Time Alt. Az. Time Alt. Az.
4 Apr ? 19:53:32 10° E 22:47:20 25° E 00:10:44 10° E visible
5 Apr ? 23:18:46 10° W 01:00:39 48° W 09:16:03 10° E visible
6 Apr ? 20:24:47 10° W 21:20:05 89° NNW 06:33:27 10° E visible
7 Apr ? 17:40:10 10° WSW 17:51:29 79° S 03:46:46 10° E visible
8 Apr ? 19:09:58 10° E 23:09:52 33° E 00:44:13 10° E visible
9 Apr ? 23:46:49 10° W 01:24:09 39° W 09:38:24 10° ESE visible
10 Apr ? 20:48:25 10° W 22:26:35 84° NW 06:56:06 10° E visible
11 Apr ? 18:02:41 10° WSW 18:17:00 82° S 04:10:37 10° E visible
12 Apr ? 15:20:19 10° WSW 23:32:36 42° E 01:13:37 10° E visible
